KQA114 HKJK-LFPG

Flight info

Callsign KQA114
Flight time N/A
Altitude 38000
Route IBRAT3E APKUB UQ293 EKMOG DCT NN UW325 SIPKI UT325 BUN UG862 DIR UB730 DJA/N0487F400 UB730 BOD UM508 TGU UJ36 BSA/N0483F410 UB726 ZEM/N0483F400 UB16 PECES N853 LUMAS DCT SOFFY DCT MRM DCT MTL DCT ETREK DCT RUSIT DCT BULOL DCT LOGNI DCT MOKIP DCT ARFOZ DCT TINIL
Aircraft B788/H-SDE1E2E3FGHIJ2J3J4J5M1RWXY/LB1D1

Departure

Time 2026-05-04 06:25
Airport Jomo Kenyatta International Airport (HKJK)

Arrival

Time N/A
Airport Charles de Gaulle International Airport (LFPG)
Time Latitude Longitude Altitude Speed Heading
2026-05-04 05:15 -1.33055 36.92297 5340 ft 0 kts 88°
2026-05-04 06:11 -1.33058 36.92231 5341 ft 2 kts 88°
2026-05-04 06:11 -1.33058 36.92215 5341 ft 2 kts 88°
2026-05-04 06:13 -1.33059 36.92207 5341 ft 0 kts 88°
2026-05-04 06:14 -1.33059 36.92208 5341 ft 0 kts 88°
2026-05-04 06:15 -1.33058 36.92209 5341 ft 0 kts 88°
2026-05-04 06:16 -1.33058 36.92210 5341 ft 1 kts 87°
2026-05-04 06:16 -1.33057 36.92215 5341 ft 1 kts 73°
2026-05-04 06:16 -1.33055 36.92218 5341 ft 1 kts 57°
2026-05-04 06:17 -1.33052 36.92221 5341 ft 1 kts 41°
2026-05-04 06:17 -1.33047 36.92225 5341 ft 2 kts 33°
2026-05-04 06:17 -1.33038 36.92227 5341 ft 1 kts 356°
2026-05-04 06:17 -1.33026 36.92225 5341 ft 3 kts 354°
2026-05-04 06:18 -1.33001 36.92223 5341 ft 4 kts 358°
2026-05-04 06:18 -1.32966 36.92229 5341 ft 6 kts 16°
2026-05-04 06:18 -1.32922 36.92246 5341 ft 8 kts 25°
2026-05-04 06:20 -1.32822 36.91919 5341 ft 6 kts 277°
2026-05-04 06:20 -1.32820 36.91885 5341 ft 4 kts 264°
2026-05-04 06:21 -1.32860 36.91798 5341 ft 6 kts 242°
2026-05-04 06:21 -1.32872 36.91764 5341 ft 5 kts 263°
2026-05-04 06:22 -1.32858 36.91731 5341 ft 6 kts 311°
2026-05-04 06:22 -1.32816 36.91697 5341 ft 9 kts 325°
2026-05-04 06:25 -1.27040 36.99785 8145 ft 243 kts 57°
2026-05-04 06:25 -1.26152 37.01177 8187 ft 240 kts 57°
2026-05-04 06:26 -1.25216 37.02627 8581 ft 252 kts 57°
2026-05-04 06:26 -1.24251 37.04106 8989 ft 260 kts 54°
2026-05-04 06:26 -1.22981 37.05417 9382 ft 262 kts 37°
2026-05-04 06:26 -1.21398 37.06282 9780 ft 263 kts 20°
2026-05-04 06:27 -1.14320 37.04866 11427 ft 287 kts 331°
2026-05-04 06:28 -1.12574 37.03867 11834 ft 293 kts 326°
2026-05-04 06:28 -1.10964 37.02571 12246 ft 302 kts 316°
2026-05-04 06:28 -1.09545 37.00959 12642 ft 314 kts 306°
2026-05-04 06:28 -1.08380 36.99069 13065 ft 325 kts 297°
2026-05-04 06:29 -1.07505 36.96945 13474 ft 336 kts 288°
2026-05-04 06:29 -1.06951 36.94639 13880 ft 348 kts 279°
2026-05-04 06:29 -1.06742 36.92196 14286 ft 359 kts 270°
2026-05-04 06:29 -1.06845 36.89668 14690 ft 369 kts 266°
2026-05-04 06:30 -1.07051 36.87074 15090 ft 380 kts 265°
2026-05-04 06:30 -1.07278 36.84413 15493 ft 389 kts 265°
2026-05-04 06:30 -1.07433 36.82611 15761 ft 395 kts 265°
2026-05-04 06:30 -1.07751 36.78916 16298 ft 406 kts 265°
2026-05-04 06:31 -1.07997 36.76063 16699 ft 414 kts 265°
2026-05-04 06:31 -1.08246 36.73176 17099 ft 420 kts 265°
2026-05-04 06:31 -1.08498 36.70245 17499 ft 426 kts 265°
2026-05-04 06:31 -1.08753 36.67287 17898 ft 430 kts 265°
2026-05-04 06:32 -1.09007 36.64332 18296 ft 433 kts 265°
2026-05-04 06:33 -1.10561 36.42550 21101 ft 462 kts 265°
2026-05-04 06:34 -1.10786 36.39324 21496 ft 465 kts 265°
2026-05-04 06:34 -1.10933 36.37189 21761 ft 466 kts 265°
2026-05-04 06:34 -1.11151 36.33948 22162 ft 469 kts 265°
2026-05-04 06:34 -1.11364 36.30687 22562 ft 471 kts 265°
2026-05-04 06:35 -1.11571 36.27420 22960 ft 473 kts 265°
2026-05-04 06:36 -1.05575 36.05517 25778 ft 483 kts 291°
2026-05-04 06:37 -1.04320 36.02417 26083 ft 485 kts 291°
2026-05-04 06:37 -1.03033 35.99277 26331 ft 489 kts 291°
2026-05-04 06:37 -1.01695 35.96136 26580 ft 492 kts 292°
2026-05-04 06:37 -1.00331 35.92986 26829 ft 495 kts 292°
2026-05-04 06:38 -0.98958 35.89807 27080 ft 498 kts 292°
2026-05-04 06:38 -0.97592 35.86622 27330 ft 500 kts 292°
2026-05-04 06:40 -0.87896 35.64009 29080 ft 511 kts 292°
2026-05-04 06:40 -0.86487 35.60723 29331 ft 511 kts 292°
2026-05-04 06:40 -0.85089 35.57464 29581 ft 512 kts 292°
2026-05-04 06:40 -0.83682 35.54185 29832 ft 511 kts 292°
2026-05-04 06:41 -0.82281 35.50918 30082 ft 511 kts 292°
2026-05-04 06:41 -0.80880 35.47652 30331 ft 510 kts 293°
2026-05-04 06:41 -0.79495 35.44418 30579 ft 509 kts 293°
2026-05-04 06:41 -0.78113 35.41197 30819 ft 507 kts 293°
2026-05-04 06:42 -0.76723 35.37959 31020 ft 507 kts 293°
2026-05-04 06:42 -0.75331 35.34716 31218 ft 506 kts 292°
2026-05-04 06:42 -0.73952 35.31501 31414 ft 505 kts 292°
2026-05-04 06:44 -0.64345 35.09111 32808 ft 500 kts 292°
2026-05-04 06:44 -0.62969 35.05904 33012 ft 501 kts 292°
2026-05-04 06:44 -0.61596 35.02703 33211 ft 502 kts 292°
2026-05-04 06:45 -0.60212 34.99479 33413 ft 503 kts 292°
2026-05-04 06:45 -0.58832 34.96262 33614 ft 504 kts 292°
2026-05-04 06:45 -0.57467 34.93081 33813 ft 505 kts 292°
2026-05-04 06:45 -0.56083 34.89856 34013 ft 507 kts 292°
2026-05-04 06:46 -0.54675 34.86575 34216 ft 508 kts 292°
2026-05-04 06:46 -0.53281 34.83328 34416 ft 510 kts 292°
2026-05-04 06:46 -0.51876 34.80053 34618 ft 512 kts 292°
2026-05-04 06:46 -0.50485 34.76812 34816 ft 514 kts 292°
2026-05-04 06:48 -0.40411 34.53340 36204 ft 539 kts 292°
2026-05-04 06:48 -0.38926 34.49879 36403 ft 543 kts 291°
2026-05-04 06:49 -0.37437 34.46386 36600 ft 546 kts 291°
2026-05-04 06:50 -0.26962 34.21644 38004 ft 555 kts 291°
2026-05-04 06:51 -0.25500 34.18193 38201 ft 552 kts 291°
2026-05-04 06:51 -0.23964 34.14566 38347 ft 550 kts 291°
2026-05-04 06:51 -0.21008 34.07586 38372 ft 547 kts 290°
2026-05-04 06:52 -0.18048 34.00552 38380 ft 544 kts 288°
2026-05-04 06:52 -0.16170 33.93296 38397 ft 541 kts 276°
2026-05-04 06:53 -0.15709 33.89565 38291 ft 544 kts 275°
2026-05-04 06:53 -0.15276 33.85810 38238 ft 547 kts 276°
2026-05-04 06:53 -0.14706 33.81641 38232 ft 549 kts 277°
2026-05-04 06:54 -0.13569 33.74093 38246 ft 551 kts 278°
2026-05-04 06:54 -0.12470 33.66493 38226 ft 554 kts 277°
2026-05-04 06:55 -0.11369 33.58867 38223 ft 554 kts 277°
2026-05-04 06:55 -0.10263 33.51239 38243 ft 554 kts 278°
2026-05-04 06:57 -0.05845 33.20734 38226 ft 555 kts 278°
2026-05-04 06:58 -0.04737 33.13103 38213 ft 555 kts 277°
2026-05-04 06:58 -0.03633 33.05471 38234 ft 555 kts 277°
2026-05-04 06:59 -0.02527 32.97846 38213 ft 552 kts 276°
2026-05-04 06:59 -0.01431 32.90270 38189 ft 549 kts 276°
2026-05-04 07:01 0.02898 32.60388 38173 ft 538 kts 276°
2026-05-04 07:02 0.03969 32.52997 38169 ft 536 kts 276°
2026-05-04 07:02 0.05251 32.45685 38164 ft 535 kts 286°
2026-05-04 07:03 0.08407 32.38984 38182 ft 538 kts 302°
2026-05-04 07:03 0.12794 32.32898 38159 ft 539 kts 304°
2026-05-04 07:04 0.17045 32.26710 38172 ft 539 kts 302°
2026-05-04 07:04 0.21222 32.20499 38176 ft 540 kts 303°
2026-05-04 07:05 0.25458 32.14288 38166 ft 540 kts 303°
2026-05-04 07:05 0.29687 32.08069 38180 ft 541 kts 303°
2026-05-04 07:06 0.36037 31.98725 38167 ft 542 kts 303°
2026-05-04 07:07 0.40246 31.92527 38178 ft 543 kts 303°